Content
SEND FEEDBACK

Daily
Averages
Monthly
Summary
United States of America

DAYTONA BEACH, FLORIDA


Home > North America > United States > Florida
Elevation: 29 feet     Latitude: 29 11N     Longitude: 081 03W

WEATHER
 
SELECT A DAY
Number of Records: 199,324;   Date Range: 1/1/95 - 11/25/14
 
SHARE

PRINT THIS DATA

[ ← Previous Day ]
WEATHER ALMANAC - FEBRUARY 1, 2013
[ Next Day → ]
[ °C ]   °F
Weather ElementAverageHighLow
Temperature52 °F68 °F (1:53 pm)37.9 °F (2:53 am)
Dewpoint30.2 °F37.9 °F (6:53 pm)19.9 °F (1:53 pm)
Humidity49 %86 % (2:53 am)16 % (1:53 pm)
Barometer30.30 in30.36 in (8:53 am)30.25 in (1:53 am)
Wind Speed3.5 mph9.2 mph (1:53 pm)
Weather ElementAverage
Visibility10 mi
Wind DirectionSSE (154.3 °)

Weather ElementTotal
Precipitation---
Heating Degree Days12.1 (Base 65)
Growing Degree Days3 (Base 50)
Averaged from 23 records on February 1, 2013
WEATHER CONDITIONS BREAKOUT
WIND DIRECTION BREAKOUT
WEATHER BY HOUR - FEBRUARY 1, 2013
[ °C ]   °F
Local TimeTemperatureDewpointHumidityBarometerVisibilityWind DirectionWind SpeedGust SpeedPrecipitationEventsConditions
1:53 AM39.0 °F33.1 °F79 %30.25 in10.0 miCalmPartly Cloudy
2:53 AM37.9 °F34.0 °F86 %30.26 in10.0 miCalmPartly Cloudy
3:53 AM37.9 °F32.0 °F79 %30.27 in10.0 miWNW (300°)3.5 mphPartly Cloudy
4:53 AM39.0 °F30.9 °F73 %30.27 in10.0 miCalmPartly Cloudy
5:53 AM39.9 °F28.9 °F65 %30.28 in10.0 miCalmPartly Cloudy
6:53 AM39.9 °F30.0 °F68 %30.31 in10.0 miCalmPartly Cloudy
7:53 AM41.0 °F30.0 °F65 %30.33 in10.0 miNW (310°)3.5 mphPartly Cloudy
8:53 AM48.0 °F30.0 °F50 %30.36 in10.0 miNW (310°)4.6 mphPartly Cloudy
9:53 AM53.1 °F30.0 °F41 %30.36 in10.0 miVariable5.8 mphPartly Cloudy
10:53 AM59.0 °F28.0 °F31 %30.36 in10.0 miVariable6.9 mphPartly Cloudy
11:53 AM63.0 °F25.0 °F24 %30.35 in10.0 miNW (320°)8.1 mphPartly Cloudy
12:53 PM66.0 °F25.0 °F21 %30.31 in10.0 miWest (280°)4.6 mphPartly Cloudy
1:53 PM68.0 °F19.9 °F16 %30.28 in10.0 miWest (280°)9.2 mphMostly Cloudy
2:53 PM66.9 °F23.0 °F19 %30.27 in10.0 miWNW (290°)6.9 mphMostly Cloudy
3:53 PM66.0 °F25.0 °F21 %30.26 in10.0 miWest (280°)9.2 mphMostly Cloudy
4:53 PM64.0 °F27.0 °F25 %30.26 in10.0 miWSW (250°)4.6 mphMostly Cloudy
5:53 PM61.0 °F33.1 °F35 %30.26 in10.0 miCalmMostly Cloudy
6:53 PM55.9 °F37.9 °F51 %30.27 in10.0 miCalmScattered Clouds
7:53 PM53.1 °F36.0 °F52 %30.28 in10.0 miCalmPartly Cloudy
8:53 PM50.0 °F37.0 °F61 %30.29 in10.0 miCalmClear
9:53 PM53.1 °F33.1 °F47 %30.30 in10.0 miNNW (330°)5.8 mphClear
10:53 PM52.0 °F32.0 °F47 %30.31 in10.0 miWNW (300°)4.6 mphClear
11:53 PM42.1 °F33.1 °F70 %30.31 in10.0 miWNW (300°)3.5 mphClear
Hourly data recorded from KDAB, located miles away from Daytona Beach, Florida







STORIES FROM OUR PARTNERS